Tracking 17155 objects as of 29-July-2015
HD Live streaming from Space Station

SL-19 R/B

Track SL-19 R/B now!
10-day predictions
SL-19 R/B is classified as:


NORAD ID: 36589
Int'l Code: 2010-023B
Perigee: 881.7 km
Apogee: 1,216.0 km
Inclination: 100.5 °
Period: 106.0 minutes
Semi major axis: 7419 km
RCS: 6.505 m2 (large)
Launch date: June 2, 2010
Source: Commonwealth of Independent States (former USSR) (CIS)

Note: This is a ROCKET BODY
Your satellite tracking list
Your tracking list is empty





NASA's NSSDC Master Catalog

Two Line Element Set (TLE):
1 36589U 10023B   15208.03320140 -.00000039  00000-0  15779-4 0  9992
2 36589 100.5434 192.0581 0225258 332.7985 066.7030 13.58346093255542

Source of the keplerian elements: AFSPC

N2YO: 281